COSMOS 80

Satellite information

Favourite Embed

Satellite Type and Status

PAYLOADIN ORBIT

Key statistics

Satellite COSMOS 80 at a glance.

Uptime

21802

Days in orbit

Revolutions

≈ 12.5

Per day

Orbit

LEO

Low Earth Orbit

Inclination

56.1

Latest

Satellite identification and parameters

Extended collection of information and parameters for COSMOS 80.

Object identification

Identified? True

Debris? False

Object name: COSMOS 80

International designator: 1965-070A

Object number (NORAD): 1570

Object ID (CCSDS): 1570

Country: COMMONWEALTH OF INDEPENDENT STATES (CIS)

Current information (Y/N): Y

RCS size: MEDIUM

Orbital parameters

Period: 114.943 minutes

Inclination: 56.053 deg

SMA: 7830.969 km

Apoapsis: 1533.058 km

Periapsis: 1372.611 km

RAAN: 117.1943 deg

Eccentricy: 0.0102444

Argument of periapsis: 138.269 deg

Mean anomaly: 32.5903 deg

Mean motion: 12.52793459 rev/day

Mean motion (dot): -0.00000102 rev/day2

B* drag term: -0.000032724 1/REarth

Two-line elements (TLE)

Creation date: May 12, 2025, 10:56 p.m.

Reference frame: TEME

Reference center: EARTH

Epoch: May 12, 2025, 4:57 p.m. UTC

TLE line 0: 0 COSMOS 80

TLE line 1: 1 1570U 65070A 25132.70668994 -.00000102 00000-0 -32724-4 0 9990

TLE line 2: 2 1570 56.0530 117.1943 0102444 138.2690 32.5903 12.52793459731600

Live tracking on map

Real-time ground track for satellite COSMOS 80.

In-orbit conjunctions

A list of the most updated potential collisions computed for object COSMOS 80.

Target Orbit TCA Probability of collision Miss distance Type
DELTA 1 DEB SSO 2025-03-14 14:24:49 0.0001069371 731.0 (m) DEBRIS

Associated space launch

The Strela-1 satellites were prototype store-dump communications satellites for tactical communication.

COSMOS 80 was lifted into orbit during the mission ‘Kosmos 65S3 | Strela-1 20 to 24’, on board a Kosmos 65S3 space rocket.

The launch took place on Sept. 3, 1965, 2 p.m. from 41/15.

For more information about the launch, click the button.

Launch to space Kosmos 65S3 | Strela-1 20 to 24
Kosmos 65S3 | Strela-1 20 to 24

Agency: N/A

Status: Launch Successful

Launch date: Sept. 3, 1965, 2 p.m. UTC

Rocket: Kosmos 65S3

Launch pad: 41/15

Location: Baikonur Cosmodrome, Republic of Kazakhstan

...

Latest news about this satellite

There are no fresh news available about this satellite. Check back as we update our databases every day.


Newsletter sign-up

Weekly statistics, charts and insights to help you stay on top of the space industry.